Home   Weather   Gatineau   Past weeks

Flag for Canada Past Weather in Gatineau, Quebec, Canada — Yesterday and Last 2 Weeks

Now
55 °F

Fog.


Feels Like: 53 °F
Forecast: 53 / 79 °F
Wind: 10 mph from East

Location: Ottawa Int'L. Ont.

Current Time: Apr 27, 2017 at 11:09:20 am

Latest Report: Apr 27, 2017 at 10:07 am


Visibility: 4 mi

Pressure: 29.82 "Hg

Humidity: 100%

Dew Point: 55 °F

Location of GatineauLocation

Past Weather in Gatineau — Graph

°F

Gatineau Temperature Yesterday

Maximum temperature yesterday: 64 °F (at 5:00 pm)
Minimum temperature yesterday: 46 °F (at 1:00 am)
Average temperature yesterday: 54 °F

High & Low Weather Summary for the Past Weeks

 TemperatureHumidityPressure
High66 °F (Apr 23, 4:00 pm)100% (Apr 15, 6:00 pm)30.50 "Hg (Apr 15, 6:00 pm)
Low27 °F (Apr 18, 5:00 am)18% (Apr 14, 2:00 pm)29.60 "Hg (Apr 16, 4:00 pm)
Average47 °F73%30.07 "Hg
* Reported Apr 12 10:00 am — Apr 27 10:07 am, Gatineau, Weather by CustomWeather, © 2017

Note: Actual official high and low records may vary slightly from our data, if they occured in-between our weather recording intervals... More about our weather records

Advertising

Gatineau Weather History for the Previous 24 Hours

Scroll right to see more
 ConditionsComfort  
Time TempWeatherWind HumidityBarometerVisibility
10:07 am
Thu, Apr 27
55 °FFog.10 mph100%29.82 "Hg4 mi
9:32 am55 °FDrizzle. Fog.13 mph100%29.82 "Hg1 mi
8:28 am54 °FDrizzle. Fog.13 mph100%29.81 "Hg1 mi
8:00 am54 °FDrizzle. Fog.8 mph100%29.81 "Hg0 mi
7:47 am54 °FDrizzle. Fog.12 mph100%29.80 "Hg0 mi
7:22 am54 °FFog.13 mph100%29.80 "Hg0 mi
6:31 am54 °FDrizzle. Fog.7 mph100%29.80 "Hg0 mi
6:00 am54 °FFog.12 mph100%29.79 "Hg0 mi
5:00 am54 °FFog.9 mph100%29.79 "Hg0 mi
4:00 am54 °FFog.9 mph100%29.79 "Hg0 mi
3:00 am54 °FFog.7 mph100%29.79 "Hg0 mi
2:00 am54 °FFog.9 mph100%29.80 "Hg1 mi
1:00 am54 °FFog.10 mph100%29.80 "Hg1 mi
12:33 am54 °FFog.8 mph100%29.80 "Hg1 mi
11:43 pm
Wed, Apr 26
55 °FPassing clouds.10 mph94%29.80 "Hg15 mi
11:36 pm55 °FMostly cloudy.10 mph94%29.80 "Hg15 mi
10:00 pm55 °FClear.10 mph94%29.79 "Hg15 mi
9:00 pm55 °FPassing clouds.8 mph94%29.79 "Hg15 mi
8:00 pm59 °FPassing clouds.7 mph82%29.78 "Hg15 mi
7:00 pm61 °FPartly sunny.7 mph83%29.79 "Hg15 mi
6:00 pm64 °FPartly sunny.9 mph73%29.79 "Hg15 mi
5:00 pm64 °FScattered clouds.10 mph68%29.78 "Hg15 mi
4:00 pm63 °FPartly sunny.13 mph73%29.80 "Hg15 mi
3:00 pm63 °FBroken clouds.9 mph73%29.82 "Hg15 mi
2:00 pm63 °FPartly sunny.12 mph73%29.84 "Hg15 mi
1:00 pm59 °FPartly sunny.5 mph77%29.86 "Hg15 mi
12:00 pm57 °FBroken clouds.7 mph82%29.88 "Hg15 mi
11:00 am55 °FPartly sunny.9 mph82%29.89 "Hg15 mi
Weather by CustomWeather, © 2017

See weather overviewHow to use our weather pages